Year,Month,Day,Hour,Minute,Value (Times are PST for temperature in C)
2015,06,16,00,00,18.90
2015,06,16,00,01,18.90
2015,06,16,00,02,18.80
2015,06,16,00,03,18.90
2015,06,16,00,04,18.80
2015,06,16,00,05,18.80
2015,06,16,00,06,18.80
2015,06,16,00,07,18.80
2015,06,16,00,08,18.80
2015,06,16,00,09,18.80
2015,06,16,00,10,18.80
2015,06,16,00,11,18.80
2015,06,16,00,12,18.80
2015,06,16,00,13,18.70
2015,06,16,00,14,18.70
2015,06,16,00,15,18.70
2015,06,16,00,16,18.70
2015,06,16,00,17,18.70
2015,06,16,00,18,18.70
2015,06,16,00,19,18.70
2015,06,16,00,20,18.80
2015,06,16,00,21,18.80
2015,06,16,00,22,18.80
2015,06,16,00,23,18.90
2015,06,16,00,24,18.90
2015,06,16,00,25,18.90
2015,06,16,00,26,19.00
2015,06,16,00,27,19.00
2015,06,16,00,28,19.00
2015,06,16,00,29,19.10
2015,06,16,00,30,19.10
2015,06,16,00,31,19.10
2015,06,16,00,32,19.10
2015,06,16,00,33,19.10
2015,06,16,00,34,19.10
2015,06,16,00,35,19.10
2015,06,16,00,36,19.10
2015,06,16,00,37,19.00
2015,06,16,00,38,19.00
2015,06,16,00,39,18.90
2015,06,16,00,40,18.90
2015,06,16,00,41,18.90
2015,06,16,00,42,18.90
2015,06,16,00,43,18.80
2015,06,16,00,44,18.80
2015,06,16,00,45,18.80
2015,06,16,00,46,18.70
2015,06,16,00,47,18.70
2015,06,16,00,48,18.60
2015,06,16,00,49,18.60
2015,06,16,00,50,18.50
2015,06,16,00,51,18.50
2015,06,16,00,52,18.40
2015,06,16,00,53,18.40
2015,06,16,00,54,18.40
2015,06,16,00,55,18.30
2015,06,16,00,56,18.30
2015,06,16,00,57,18.30
2015,06,16,00,58,18.20
2015,06,16,00,59,18.20
2015,06,16,01,00,18.20
2015,06,16,01,01,18.10
2015,06,16,01,02,18.10
2015,06,16,01,03,18.10
2015,06,16,01,04,18.00
2015,06,16,01,05,18.00
2015,06,16,01,06,17.90
2015,06,16,01,07,17.90
2015,06,16,01,08,17.80
2015,06,16,01,09,17.80
2015,06,16,01,10,17.80
2015,06,16,01,11,17.80
2015,06,16,01,12,17.70
2015,06,16,01,13,17.70
2015,06,16,01,14,17.70
2015,06,16,01,15,17.70
2015,06,16,01,16,17.60
2015,06,16,01,17,17.60
2015,06,16,01,18,17.60
2015,06,16,01,19,17.50
2015,06,16,01,20,17.50
2015,06,16,01,21,17.50
2015,06,16,01,22,17.40
2015,06,16,01,23,17.40
2015,06,16,01,24,17.40
2015,06,16,01,25,17.30
2015,06,16,01,26,17.30
2015,06,16,01,27,17.30
2015,06,16,01,28,17.20
2015,06,16,01,29,17.20
2015,06,16,01,30,17.20
2015,06,16,01,31,17.10
2015,06,16,01,32,17.10
2015,06,16,01,33,17.10
2015,06,16,01,34,17.00
2015,06,16,01,35,17.00
2015,06,16,01,36,17.00
2015,06,16,01,37,16.90
2015,06,16,01,38,16.90
2015,06,16,01,39,16.90
2015,06,16,01,40,16.90
2015,06,16,01,41,16.80
2015,06,16,01,42,16.80
2015,06,16,01,43,16.80
2015,06,16,01,44,16.80
2015,06,16,01,45,16.80
2015,06,16,01,46,16.80
2015,06,16,01,47,16.80
2015,06,16,01,48,16.80
2015,06,16,01,49,16.80
2015,06,16,01,50,16.70
2015,06,16,01,51,16.70
2015,06,16,01,52,16.70
2015,06,16,01,53,16.70
2015,06,16,01,54,16.70
2015,06,16,01,55,16.70
2015,06,16,01,56,16.60
2015,06,16,01,57,16.60
2015,06,16,01,58,16.60
2015,06,16,01,59,16.60
2015,06,16,02,00,16.60
2015,06,16,02,01,16.50
2015,06,16,02,02,16.50
2015,06,16,02,03,16.50
2015,06,16,02,04,16.40
2015,06,16,02,05,16.40
2015,06,16,02,06,16.40
2015,06,16,02,07,16.30
2015,06,16,02,08,16.30
2015,06,16,02,09,16.30
2015,06,16,02,10,16.20
2015,06,16,02,11,16.20
2015,06,16,02,12,16.20
2015,06,16,02,13,16.10
2015,06,16,02,14,16.10
2015,06,16,02,15,16.10
2015,06,16,02,16,16.00
2015,06,16,02,17,15.90
2015,06,16,02,18,15.90
2015,06,16,02,19,15.90
2015,06,16,02,20,15.80
2015,06,16,02,21,15.80
2015,06,16,02,22,15.80
2015,06,16,02,23,15.80
2015,06,16,02,24,15.70
2015,06,16,02,25,15.70
2015,06,16,02,26,15.70
2015,06,16,02,27,15.70
2015,06,16,02,28,15.70
2015,06,16,02,29,15.70
2015,06,16,02,30,15.70
2015,06,16,02,31,15.70
2015,06,16,02,32,15.70
2015,06,16,02,33,15.70
2015,06,16,02,34,15.70
2015,06,16,02,35,15.70
2015,06,16,02,36,15.60
2015,06,16,02,37,15.60
2015,06,16,02,38,15.60
2015,06,16,02,39,15.60
2015,06,16,02,40,15.50
2015,06,16,02,41,15.50
2015,06,16,02,42,15.40
2015,06,16,02,43,15.40
2015,06,16,02,44,15.40
2015,06,16,02,45,15.40
2015,06,16,02,46,15.40
2015,06,16,02,47,15.40
2015,06,16,02,48,15.40
2015,06,16,02,49,15.40
2015,06,16,02,50,15.40
2015,06,16,02,51,15.40
2015,06,16,02,52,15.40
2015,06,16,02,53,15.40
2015,06,16,02,54,15.30
2015,06,16,02,55,15.30
2015,06,16,02,56,15.30
2015,06,16,02,57,15.30
2015,06,16,02,58,15.30
2015,06,16,02,59,15.30
2015,06,16,03,00,15.30
2015,06,16,03,01,15.30
2015,06,16,03,02,15.30
2015,06,16,03,03,15.30
2015,06,16,03,04,15.30
2015,06,16,03,05,15.30
2015,06,16,03,06,15.30
2015,06,16,03,07,15.30
2015,06,16,03,08,15.30
2015,06,16,03,09,15.30
2015,06,16,03,10,15.20
2015,06,16,03,11,15.20
2015,06,16,03,12,15.20
2015,06,16,03,13,15.20
2015,06,16,03,14,15.20
2015,06,16,03,15,15.20
2015,06,16,03,16,15.10
2015,06,16,03,17,15.10
2015,06,16,03,18,15.10
2015,06,16,03,19,15.10
2015,06,16,03,20,15.10
2015,06,16,03,21,15.00
2015,06,16,03,22,15.00
2015,06,16,03,23,15.00
2015,06,16,03,24,15.00
2015,06,16,03,25,15.00
2015,06,16,03,26,15.00
2015,06,16,03,27,15.00
2015,06,16,03,28,15.00
2015,06,16,03,29,15.00
2015,06,16,03,30,15.00
2015,06,16,03,31,15.00
2015,06,16,03,32,15.00
2015,06,16,03,33,15.00
2015,06,16,03,34,15.00
2015,06,16,03,35,15.00
2015,06,16,03,36,15.00
2015,06,16,03,37,15.00
2015,06,16,03,38,15.00
2015,06,16,03,39,15.00
2015,06,16,03,40,15.00
2015,06,16,03,41,14.90
2015,06,16,03,42,14.80
2015,06,16,03,43,14.70
2015,06,16,03,44,14.70
2015,06,16,03,45,14.60
2015,06,16,03,46,14.50
2015,06,16,03,47,14.50
2015,06,16,03,48,14.40
2015,06,16,03,49,14.30
2015,06,16,03,50,14.30
2015,06,16,03,51,14.20
2015,06,16,03,52,14.20
2015,06,16,03,53,14.10
2015,06,16,03,54,14.10
2015,06,16,03,55,14.00
2015,06,16,03,56,13.90
2015,06,16,03,57,13.90
2015,06,16,03,58,13.80
2015,06,16,03,59,13.80
2015,06,16,04,00,13.70
2015,06,16,04,01,13.70
2015,06,16,04,02,13.60
2015,06,16,04,03,13.60
2015,06,16,04,04,13.50
2015,06,16,04,05,13.50
2015,06,16,04,06,13.40
2015,06,16,04,07,13.40
2015,06,16,04,08,13.30
2015,06,16,04,09,13.30
2015,06,16,04,10,13.30
2015,06,16,04,11,13.20
2015,06,16,04,12,13.20
2015,06,16,04,13,13.20
2015,06,16,04,14,13.20
2015,06,16,04,15,13.20
2015,06,16,04,16,13.10
2015,06,16,04,17,13.10
2015,06,16,04,18,13.10
2015,06,16,04,19,13.10
2015,06,16,04,20,13.10
2015,06,16,04,21,13.10
2015,06,16,04,22,13.20
2015,06,16,04,23,13.20
2015,06,16,04,24,13.20
2015,06,16,04,25,13.30
2015,06,16,04,26,13.40
2015,06,16,04,27,13.50
2015,06,16,04,28,13.60
2015,06,16,04,29,13.70
2015,06,16,04,30,13.80
2015,06,16,04,31,13.80
2015,06,16,04,32,13.90
2015,06,16,04,33,13.90
2015,06,16,04,34,14.00
2015,06,16,04,35,14.10
2015,06,16,04,36,14.10
2015,06,16,04,37,14.10
2015,06,16,04,38,14.10
2015,06,16,04,39,14.20
2015,06,16,04,40,14.20
2015,06,16,04,41,14.20
2015,06,16,04,42,14.20
2015,06,16,04,43,14.20
2015,06,16,04,44,14.20
2015,06,16,04,45,14.10
2015,06,16,04,46,14.10
2015,06,16,04,47,14.10
2015,06,16,04,48,14.10
2015,06,16,04,49,14.10
2015,06,16,04,50,14.10
2015,06,16,04,51,14.10
2015,06,16,04,52,14.00
2015,06,16,04,53,14.00
2015,06,16,04,54,14.00
2015,06,16,04,55,14.00
2015,06,16,04,56,13.90
2015,06,16,04,57,13.90
2015,06,16,04,58,13.90
2015,06,16,04,59,13.90
2015,06,16,05,00,13.90
2015,06,16,05,01,13.80
2015,06,16,05,02,13.80
2015,06,16,05,03,13.80
2015,06,16,05,04,13.80
2015,06,16,05,05,13.80
2015,06,16,05,06,13.80
2015,06,16,05,07,13.80
2015,06,16,05,08,13.80
2015,06,16,05,09,13.70
2015,06,16,05,10,13.70
2015,06,16,05,11,13.70
2015,06,16,05,12,13.70
2015,06,16,05,13,13.70
2015,06,16,05,14,13.70
2015,06,16,05,15,13.70
2015,06,16,05,16,13.60
2015,06,16,05,17,13.60
2015,06,16,05,18,13.60
2015,06,16,05,19,13.60
2015,06,16,05,20,13.60
2015,06,16,05,21,13.60
2015,06,16,05,22,13.60
2015,06,16,05,23,13.50
2015,06,16,05,24,13.50
2015,06,16,05,25,13.50
2015,06,16,05,26,13.50
2015,06,16,05,27,13.50
2015,06,16,05,28,13.50
2015,06,16,05,29,13.40
2015,06,16,05,30,13.40
2015,06,16,05,31,13.40
2015,06,16,05,32,13.40
2015,06,16,05,33,13.40
2015,06,16,05,34,13.40
2015,06,16,05,35,13.30
2015,06,16,05,36,13.30
2015,06,16,05,37,13.30
2015,06,16,05,38,13.30
2015,06,16,05,39,13.30
2015,06,16,05,40,13.30
2015,06,16,05,41,13.30
2015,06,16,05,42,13.20
2015,06,16,05,43,13.20
2015,06,16,05,44,13.20
2015,06,16,05,45,13.10
2015,06,16,05,46,13.10
2015,06,16,05,47,12.90
2015,06,16,05,48,12.80
2015,06,16,05,49,12.70
2015,06,16,05,50,12.60
2015,06,16,05,51,12.50
2015,06,16,05,52,12.40
2015,06,16,05,53,12.30
2015,06,16,05,54,12.30
2015,06,16,05,55,12.20
2015,06,16,05,56,12.20
2015,06,16,05,57,12.10
2015,06,16,05,58,12.10
2015,06,16,05,59,12.10
2015,06,16,06,00,12.10
2015,06,16,06,01,12.10
2015,06,16,06,02,12.10
2015,06,16,06,03,12.00
2015,06,16,06,04,12.00
2015,06,16,06,05,12.00
2015,06,16,06,06,12.00
2015,06,16,06,07,12.00
2015,06,16,06,08,12.00
2015,06,16,06,09,12.00
2015,06,16,06,10,12.00
2015,06,16,06,11,12.00
2015,06,16,06,12,12.00
2015,06,16,06,13,12.00
2015,06,16,06,14,12.10
2015,06,16,06,15,12.10
2015,06,16,06,16,12.10
2015,06,16,06,17,12.10
2015,06,16,06,18,12.10
2015,06,16,06,19,12.10
2015,06,16,06,20,12.10
2015,06,16,06,21,12.20
2015,06,16,06,22,12.20
2015,06,16,06,23,12.20
2015,06,16,06,24,12.20
2015,06,16,06,25,12.20
2015,06,16,06,26,12.30
2015,06,16,06,27,12.30
2015,06,16,06,28,12.30
2015,06,16,06,29,12.30
2015,06,16,06,30,12.40
2015,06,16,06,31,12.40
2015,06,16,06,32,12.40
2015,06,16,06,33,12.40
2015,06,16,06,34,12.50
2015,06,16,06,35,12.50
2015,06,16,06,36,12.60
2015,06,16,06,37,12.60
2015,06,16,06,38,12.60
2015,06,16,06,39,12.70
2015,06,16,06,40,12.70
2015,06,16,06,41,12.70
2015,06,16,06,42,12.70
2015,06,16,06,43,12.70
2015,06,16,06,44,12.70
2015,06,16,06,45,12.70
2015,06,16,06,46,12.70
2015,06,16,06,47,12.70
2015,06,16,06,48,12.70
2015,06,16,06,49,12.70
2015,06,16,06,50,12.70
2015,06,16,06,51,12.80
2015,06,16,06,52,12.80
2015,06,16,06,53,12.80
2015,06,16,06,54,12.90
2015,06,16,06,55,13.00
2015,06,16,06,56,13.10
2015,06,16,06,57,13.20
2015,06,16,06,58,13.20
2015,06,16,06,59,13.30
2015,06,16,07,00,13.40
2015,06,16,07,01,13.50
2015,06,16,07,02,13.60
2015,06,16,07,03,13.70
2015,06,16,07,04,13.80
2015,06,16,07,05,13.90
2015,06,16,07,06,14.00
2015,06,16,07,07,14.10
2015,06,16,07,08,14.10
2015,06,16,07,09,14.20
2015,06,16,07,10,14.30
2015,06,16,07,11,14.40
2015,06,16,07,12,14.50
2015,06,16,07,13,14.60
2015,06,16,07,14,14.70
2015,06,16,07,15,14.90
2015,06,16,07,16,15.00
2015,06,16,07,17,15.00
2015,06,16,07,18,15.00
2015,06,16,07,19,15.10
2015,06,16,07,20,15.20
2015,06,16,07,21,15.20
2015,06,16,07,22,15.20
2015,06,16,07,23,15.20
2015,06,16,07,24,15.10
2015,06,16,07,25,15.00
2015,06,16,07,26,15.10
2015,06,16,07,27,15.10
2015,06,16,07,28,15.20
2015,06,16,07,29,15.20
2015,06,16,07,30,15.20
2015,06,16,07,31,15.20
2015,06,16,07,32,15.30
2015,06,16,07,33,15.30
2015,06,16,07,34,15.30
2015,06,16,07,35,15.30
2015,06,16,07,36,15.30
2015,06,16,07,37,15.30
2015,06,16,07,38,15.30
2015,06,16,07,39,15.30
2015,06,16,07,40,15.30
2015,06,16,07,41,15.30
2015,06,16,07,42,15.30
2015,06,16,07,43,15.30
2015,06,16,07,44,15.30
2015,06,16,07,45,15.30
2015,06,16,07,46,15.30
2015,06,16,07,47,15.30
2015,06,16,07,48,15.40
2015,06,16,07,49,15.40
2015,06,16,07,50,15.40
2015,06,16,07,51,15.40
2015,06,16,07,52,15.40
2015,06,16,07,53,15.40
2015,06,16,07,54,15.30
2015,06,16,07,55,15.30
2015,06,16,07,56,15.30
2015,06,16,07,57,15.30
2015,06,16,07,58,15.30
2015,06,16,07,59,15.20
2015,06,16,08,00,15.30
2015,06,16,08,01,15.30
2015,06,16,08,02,15.30
2015,06,16,08,03,15.30
2015,06,16,08,04,15.30
2015,06,16,08,05,15.30
2015,06,16,08,06,15.30
2015,06,16,08,07,15.30
2015,06,16,08,08,15.30
2015,06,16,08,09,15.30
2015,06,16,08,10,15.30
2015,06,16,08,11,15.40
2015,06,16,08,12,15.40
2015,06,16,08,13,15.50
2015,06,16,08,14,15.60
2015,06,16,08,15,15.60
2015,06,16,08,16,15.70
2015,06,16,08,17,15.80
2015,06,16,08,18,15.80
2015,06,16,08,19,15.80
2015,06,16,08,20,15.80
2015,06,16,08,21,15.80
2015,06,16,08,22,15.80
2015,06,16,08,23,15.80
2015,06,16,08,24,15.80
2015,06,16,08,25,15.80
2015,06,16,08,26,15.80
2015,06,16,08,27,15.90
2015,06,16,08,28,15.90
2015,06,16,08,29,15.90
2015,06,16,08,30,15.90
2015,06,16,08,31,16.00
2015,06,16,08,32,16.00
2015,06,16,08,33,16.00
2015,06,16,08,34,16.00
2015,06,16,08,35,16.10
2015,06,16,08,36,16.00
2015,06,16,08,37,16.00
2015,06,16,08,38,16.10
2015,06,16,08,39,16.10
2015,06,16,08,40,16.10
2015,06,16,08,41,16.20
2015,06,16,08,42,16.20
2015,06,16,08,43,16.30
2015,06,16,08,44,16.30
2015,06,16,08,45,16.30
2015,06,16,08,46,16.20
2015,06,16,08,47,16.20
2015,06,16,08,48,16.10
2015,06,16,08,49,16.00
2015,06,16,08,50,16.00
2015,06,16,08,51,15.90
2015,06,16,08,52,15.90
2015,06,16,08,53,15.90
2015,06,16,08,54,15.90
2015,06,16,08,55,15.90
2015,06,16,08,56,16.00
2015,06,16,08,57,16.00
2015,06,16,08,58,16.10
2015,06,16,08,59,16.10
2015,06,16,09,00,16.20
2015,06,16,09,01,16.20
2015,06,16,09,02,16.20
2015,06,16,09,03,16.20
2015,06,16,09,04,16.20
2015,06,16,09,05,16.20
2015,06,16,09,06,16.20
2015,06,16,09,07,16.20
2015,06,16,09,08,16.20
2015,06,16,09,09,16.10
2015,06,16,09,10,16.10
2015,06,16,09,11,16.10
2015,06,16,09,12,16.10
2015,06,16,09,13,16.20
2015,06,16,09,14,16.20
2015,06,16,09,15,16.20
2015,06,16,09,16,16.30
2015,06,16,09,17,16.40
2015,06,16,09,18,16.50
2015,06,16,09,19,16.60
2015,06,16,09,20,16.60
2015,06,16,09,21,16.70
2015,06,16,09,22,16.80
2015,06,16,09,23,16.90
2015,06,16,09,24,17.10
2015,06,16,09,25,17.20
2015,06,16,09,26,17.20
2015,06,16,09,27,17.20
2015,06,16,09,28,17.20
2015,06,16,09,29,17.20
2015,06,16,09,30,17.10
2015,06,16,09,31,17.00
2015,06,16,09,32,16.90
2015,06,16,09,33,16.80
2015,06,16,09,34,16.70
2015,06,16,09,35,16.70
2015,06,16,09,36,16.60
2015,06,16,09,37,16.60
2015,06,16,09,38,16.70
2015,06,16,09,39,16.70
2015,06,16,09,40,16.70
2015,06,16,09,41,16.70
2015,06,16,09,42,16.70
2015,06,16,09,43,16.80
2015,06,16,09,44,16.80
2015,06,16,09,45,16.90
2015,06,16,09,46,17.00
2015,06,16,09,47,17.10
2015,06,16,09,48,17.20
2015,06,16,09,49,17.30
2015,06,16,09,50,17.30
2015,06,16,09,51,17.30
2015,06,16,09,52,17.20
2015,06,16,09,53,17.20
2015,06,16,09,54,17.20
2015,06,16,09,55,17.20
2015,06,16,09,56,17.10
2015,06,16,09,57,17.10
2015,06,16,09,58,17.10
2015,06,16,09,59,17.00
2015,06,16,10,00,17.00
2015,06,16,10,01,16.90
2015,06,16,10,02,16.80
2015,06,16,10,03,16.80
2015,06,16,10,04,16.80
2015,06,16,10,05,16.90
2015,06,16,10,06,16.90
2015,06,16,10,07,16.90
2015,06,16,10,08,16.90
2015,06,16,10,09,16.90
2015,06,16,10,10,16.80
2015,06,16,10,11,16.90
2015,06,16,10,12,16.90
2015,06,16,10,13,16.90
2015,06,16,10,14,17.00
2015,06,16,10,15,17.10
2015,06,16,10,16,17.10
2015,06,16,10,17,17.10
2015,06,16,10,18,17.10
2015,06,16,10,19,17.00
2015,06,16,10,20,16.90
2015,06,16,10,21,16.80
2015,06,16,10,22,16.80
2015,06,16,10,23,16.70
2015,06,16,10,24,16.60
2015,06,16,10,25,16.60
2015,06,16,10,26,16.60
2015,06,16,10,27,16.60
2015,06,16,10,28,16.60
2015,06,16,10,29,16.70
2015,06,16,10,30,16.70
2015,06,16,10,31,16.70
2015,06,16,10,32,16.70
2015,06,16,10,33,16.70
2015,06,16,10,34,16.70
2015,06,16,10,35,16.70
2015,06,16,10,36,16.70
2015,06,16,10,37,16.80
2015,06,16,10,38,16.80
2015,06,16,10,39,16.90
2015,06,16,10,40,16.90
2015,06,16,10,41,17.00
2015,06,16,10,42,17.00
2015,06,16,10,43,17.00
2015,06,16,10,44,16.90
2015,06,16,10,45,16.90
2015,06,16,10,46,16.90
2015,06,16,10,47,16.90
2015,06,16,10,48,16.90
2015,06,16,10,49,16.90
2015,06,16,10,50,16.90
2015,06,16,10,51,16.80
2015,06,16,10,52,16.80
2015,06,16,10,53,16.80
2015,06,16,10,54,16.80
2015,06,16,10,55,16.70
2015,06,16,10,56,16.80
2015,06,16,10,57,16.80
2015,06,16,10,58,16.90
2015,06,16,10,59,16.90
2015,06,16,11,00,17.00
2015,06,16,11,01,17.00
2015,06,16,11,02,17.00
2015,06,16,11,03,17.00
2015,06,16,11,04,17.10
2015,06,16,11,05,17.10
2015,06,16,11,06,17.10
2015,06,16,11,07,17.10
2015,06,16,11,08,17.10
2015,06,16,11,09,17.10
2015,06,16,11,10,17.10
2015,06,16,11,11,17.20
2015,06,16,11,12,17.20
2015,06,16,11,13,17.30
2015,06,16,11,14,17.40
2015,06,16,11,15,17.50
2015,06,16,11,16,17.70
2015,06,16,11,17,17.80
2015,06,16,11,18,17.90
2015,06,16,11,19,17.90
2015,06,16,11,20,17.90
2015,06,16,11,21,17.80
2015,06,16,11,22,17.70
2015,06,16,11,23,17.60
2015,06,16,11,24,17.60
2015,06,16,11,25,17.60
2015,06,16,11,26,17.60
2015,06,16,11,27,17.60
2015,06,16,11,28,17.50
2015,06,16,11,29,17.60
2015,06,16,11,30,17.70
2015,06,16,11,31,17.80
2015,06,16,11,32,18.00
2015,06,16,11,33,18.10
2015,06,16,11,34,18.20
2015,06,16,11,35,18.20
2015,06,16,11,36,18.30
2015,06,16,11,37,18.40
2015,06,16,11,38,18.50
2015,06,16,11,39,18.70
2015,06,16,11,40,18.80
2015,06,16,11,41,18.90
2015,06,16,11,42,18.80
2015,06,16,11,43,18.40
2015,06,16,11,44,18.10
2015,06,16,11,45,17.80
2015,06,16,11,46,17.50
2015,06,16,11,47,17.40
2015,06,16,11,48,17.30
2015,06,16,11,49,17.30
2015,06,16,11,50,17.30
2015,06,16,11,51,17.30
2015,06,16,11,52,17.30
2015,06,16,11,53,17.50
2015,06,16,11,54,17.60
2015,06,16,11,55,17.70
2015,06,16,11,56,17.70
2015,06,16,11,57,17.60
2015,06,16,11,58,17.60
2015,06,16,11,59,17.50
2015,06,16,12,00,17.40
2015,06,16,12,01,17.40
2015,06,16,12,02,17.40
2015,06,16,12,03,17.40
2015,06,16,12,04,17.60
2015,06,16,12,05,17.60
2015,06,16,12,06,17.70
2015,06,16,12,07,17.70
2015,06,16,12,08,17.80
2015,06,16,12,09,18.00
2015,06,16,12,10,18.10
2015,06,16,12,11,18.20
2015,06,16,12,12,18.30
2015,06,16,12,13,18.40
2015,06,16,12,14,18.50
2015,06,16,12,15,18.40
2015,06,16,12,16,18.30
2015,06,16,12,17,18.10
2015,06,16,12,18,18.10
2015,06,16,12,19,18.10
2015,06,16,12,20,18.10
2015,06,16,12,21,18.30
2015,06,16,12,22,18.40
2015,06,16,12,23,18.40
2015,06,16,12,24,18.60
2015,06,16,12,25,18.70
2015,06,16,12,26,18.80
2015,06,16,12,27,18.90
2015,06,16,12,28,18.90
2015,06,16,12,29,18.80
2015,06,16,12,30,18.80
2015,06,16,12,31,18.70
2015,06,16,12,32,18.60
2015,06,16,12,33,18.50
2015,06,16,12,34,18.40
2015,06,16,12,35,18.30
2015,06,16,12,36,18.20
2015,06,16,12,37,18.20
2015,06,16,12,38,18.20
2015,06,16,12,39,18.30
2015,06,16,12,40,18.30
2015,06,16,12,41,18.50
2015,06,16,12,42,18.50
2015,06,16,12,43,18.50
2015,06,16,12,44,18.60
2015,06,16,12,45,18.60
2015,06,16,12,46,18.50
2015,06,16,12,47,18.50
2015,06,16,12,48,18.40
2015,06,16,12,49,18.40
2015,06,16,12,50,18.40
2015,06,16,12,51,18.50
2015,06,16,12,52,18.50
2015,06,16,12,53,18.70
2015,06,16,12,54,18.80
2015,06,16,12,55,18.90
2015,06,16,12,56,18.80
2015,06,16,12,57,18.80
2015,06,16,12,58,18.90
2015,06,16,12,59,18.90
2015,06,16,13,00,19.00
2015,06,16,13,01,19.10
2015,06,16,13,02,19.10
2015,06,16,13,03,19.10
2015,06,16,13,04,19.10
2015,06,16,13,05,19.10
2015,06,16,13,06,19.00
2015,06,16,13,07,19.10
2015,06,16,13,08,19.10
2015,06,16,13,09,19.10
2015,06,16,13,10,19.10
2015,06,16,13,11,19.20
2015,06,16,13,12,19.20
2015,06,16,13,13,19.30
2015,06,16,13,14,19.30
2015,06,16,13,15,19.30
2015,06,16,13,16,19.30
2015,06,16,13,17,19.30
2015,06,16,13,18,19.30
2015,06,16,13,19,19.20
2015,06,16,13,20,19.20
2015,06,16,13,21,19.20
2015,06,16,13,22,19.20
2015,06,16,13,23,19.10
2015,06,16,13,24,19.00
2015,06,16,13,25,18.90
2015,06,16,13,26,18.80
2015,06,16,13,27,18.80
2015,06,16,13,28,18.80
2015,06,16,13,29,18.90
2015,06,16,13,30,19.10
2015,06,16,13,31,19.30
2015,06,16,13,32,19.40
2015,06,16,13,33,19.50
2015,06,16,13,34,19.70
2015,06,16,13,35,19.70
2015,06,16,13,36,19.80
2015,06,16,13,37,19.80
2015,06,16,13,38,19.80
2015,06,16,13,39,19.70
2015,06,16,13,40,19.70
2015,06,16,13,41,19.60
2015,06,16,13,42,19.50
2015,06,16,13,43,19.50
2015,06,16,13,44,19.40
2015,06,16,13,45,19.40
2015,06,16,13,46,19.40
2015,06,16,13,47,19.50
2015,06,16,13,48,19.60
2015,06,16,13,49,19.70
2015,06,16,13,50,19.90
2015,06,16,13,51,20.00
2015,06,16,13,52,20.10
2015,06,16,13,53,20.10
2015,06,16,13,54,20.10
2015,06,16,13,55,20.00
2015,06,16,13,56,20.10
2015,06,16,13,57,20.10
2015,06,16,13,58,20.10
2015,06,16,13,59,20.10
2015,06,16,14,00,20.10
2015,06,16,14,01,20.10
2015,06,16,14,02,20.10
2015,06,16,14,03,20.20
2015,06,16,14,04,20.10
2015,06,16,14,05,20.00
2015,06,16,14,06,19.90
2015,06,16,14,07,19.90
2015,06,16,14,08,19.90
2015,06,16,14,09,20.10
2015,06,16,14,10,20.20
2015,06,16,14,11,20.30
2015,06,16,14,12,20.50
2015,06,16,14,13,20.50
2015,06,16,14,14,20.60
2015,06,16,14,15,20.70
2015,06,16,14,16,20.70
2015,06,16,14,17,20.80
2015,06,16,14,18,20.90
2015,06,16,14,19,21.00
2015,06,16,14,20,21.10
2015,06,16,14,21,21.10
2015,06,16,14,22,21.00
2015,06,16,14,23,21.00
2015,06,16,14,24,21.00
2015,06,16,14,25,20.90
2015,06,16,14,26,21.00
2015,06,16,14,27,21.10
2015,06,16,14,28,21.10
2015,06,16,14,29,21.10
2015,06,16,14,30,20.90
2015,06,16,14,31,20.70
2015,06,16,14,32,20.30
2015,06,16,14,33,20.10
2015,06,16,14,34,20.00
2015,06,16,14,35,19.90
2015,06,16,14,36,19.80
2015,06,16,14,37,19.90
2015,06,16,14,38,20.00
2015,06,16,14,39,20.20
2015,06,16,14,40,20.40
2015,06,16,14,41,20.60
2015,06,16,14,42,20.70
2015,06,16,14,43,20.70
2015,06,16,14,44,20.80
2015,06,16,14,45,20.80
2015,06,16,14,46,20.60
2015,06,16,14,47,20.20
2015,06,16,14,48,19.90
2015,06,16,14,49,19.70
2015,06,16,14,50,19.50
2015,06,16,14,51,19.30
2015,06,16,14,52,19.10
2015,06,16,14,53,18.90
2015,06,16,14,54,18.80
2015,06,16,14,55,18.70
2015,06,16,14,56,18.60
2015,06,16,14,57,18.50
2015,06,16,14,58,18.40
2015,06,16,14,59,18.50
2015,06,16,15,00,18.60
2015,06,16,15,01,18.70
2015,06,16,15,02,18.80
2015,06,16,15,03,18.90
2015,06,16,15,04,19.00
2015,06,16,15,05,19.10
2015,06,16,15,06,19.10
2015,06,16,15,07,19.20
2015,06,16,15,08,19.40
2015,06,16,15,09,19.50
2015,06,16,15,10,19.60
2015,06,16,15,11,19.60
2015,06,16,15,12,19.50
2015,06,16,15,13,19.50
2015,06,16,15,14,19.50
2015,06,16,15,15,19.40
2015,06,16,15,16,19.40
2015,06,16,15,17,19.30
2015,06,16,15,18,19.20
2015,06,16,15,19,19.10
2015,06,16,15,20,19.10
2015,06,16,15,21,19.10
2015,06,16,15,22,19.20
2015,06,16,15,23,19.20
2015,06,16,15,24,19.30
2015,06,16,15,25,19.40
2015,06,16,15,26,19.50
2015,06,16,15,27,19.60
2015,06,16,15,28,19.70
2015,06,16,15,29,19.70
2015,06,16,15,30,19.70
2015,06,16,15,31,19.70
2015,06,16,15,32,19.60
2015,06,16,15,33,19.50
2015,06,16,15,34,19.50
2015,06,16,15,35,19.50
2015,06,16,15,36,19.50
2015,06,16,15,37,19.50
2015,06,16,15,38,19.50
2015,06,16,15,39,19.40
2015,06,16,15,40,19.30
2015,06,16,15,41,19.30
2015,06,16,15,42,19.30
2015,06,16,15,43,19.30
2015,06,16,15,44,19.30
2015,06,16,15,45,19.30
2015,06,16,15,46,19.40
2015,06,16,15,47,19.50
2015,06,16,15,48,19.60
2015,06,16,15,49,19.60
2015,06,16,15,50,19.60
2015,06,16,15,51,19.60
2015,06,16,15,52,19.70
2015,06,16,15,53,19.70
2015,06,16,15,54,19.70
2015,06,16,15,55,19.60
2015,06,16,15,56,19.40
2015,06,16,15,57,19.30
2015,06,16,15,58,19.20
2015,06,16,15,59,19.20
2015,06,16,16,00,19.10
2015,06,16,16,01,19.00
2015,06,16,16,02,18.90
2015,06,16,16,03,18.80
2015,06,16,16,04,18.80
2015,06,16,16,05,18.80
2015,06,16,16,06,18.90
2015,06,16,16,07,18.90
2015,06,16,16,08,19.00
2015,06,16,16,09,19.00
2015,06,16,16,10,19.10
2015,06,16,16,11,19.10
2015,06,16,16,12,19.20
2015,06,16,16,13,19.20
2015,06,16,16,14,19.30
2015,06,16,16,15,19.30
2015,06,16,16,16,19.40
2015,06,16,16,17,19.40
2015,06,16,16,18,19.50
2015,06,16,16,19,19.60
2015,06,16,16,20,19.60
2015,06,16,16,21,19.70
2015,06,16,16,22,19.70
2015,06,16,16,23,19.80
2015,06,16,16,24,19.80
2015,06,16,16,25,19.80
2015,06,16,16,26,19.80
2015,06,16,16,27,19.80
2015,06,16,16,28,19.80
2015,06,16,16,29,19.80
2015,06,16,16,30,19.80
2015,06,16,16,31,19.80
2015,06,16,16,32,19.80
2015,06,16,16,33,19.80
2015,06,16,16,34,19.80
2015,06,16,16,35,19.80
2015,06,16,16,36,19.80
2015,06,16,16,37,19.80
2015,06,16,16,38,19.70
2015,06,16,16,39,19.70
2015,06,16,16,40,19.80
2015,06,16,16,41,19.90
2015,06,16,16,42,19.90
2015,06,16,16,43,19.80
2015,06,16,16,44,19.90
2015,06,16,16,45,19.90
2015,06,16,16,46,19.90
2015,06,16,16,47,20.00
2015,06,16,16,48,20.00
2015,06,16,16,49,20.00
2015,06,16,16,50,20.10
2015,06,16,16,51,20.10
2015,06,16,16,52,20.20
2015,06,16,16,53,20.30
2015,06,16,16,54,20.40
2015,06,16,16,55,20.40
2015,06,16,16,56,20.40
2015,06,16,16,57,20.40
2015,06,16,16,58,20.50
2015,06,16,16,59,20.50
2015,06,16,17,00,20.50
2015,06,16,17,01,20.40
2015,06,16,17,02,20.30
2015,06,16,17,03,20.30
2015,06,16,17,04,20.20
2015,06,16,17,05,20.20
2015,06,16,17,06,20.10
2015,06,16,17,07,20.10
2015,06,16,17,08,20.00
2015,06,16,17,09,19.90
2015,06,16,17,10,19.90
2015,06,16,17,11,19.80
2015,06,16,17,12,19.70
2015,06,16,17,13,19.60
2015,06,16,17,14,19.50
2015,06,16,17,15,19.40
2015,06,16,17,16,19.40
2015,06,16,17,17,19.40
2015,06,16,17,18,19.50
2015,06,16,17,19,19.50